Location: Bastelaar
(51.0950°N, 3.8602°E)
Time: 06:58:54
(UTC+00:00)

Timation 1 Rocket - Pass Details

Date: 18 November 2025
Orbit: 898 x 905 km, 70.0° (Epoch: 10 December)

Event Time Altitude Azimuth Distance (km) Brightness Sun altitude
Rises 16:49:24 0° 328° (NNW) 3,529 7.6 -8.9°
Reaches altitude 10° 16:51:55 10° 329° (NNW) 2,585 6.9 -9.3°
Maximum altitude 16:57:55 80° 57° (ENE) 919 4.3 -10.1°
Drops below altitude 10° 17:03:52 10° 145° (SE) 2,574 6.5 -11.0°
Sets 17:06:22 0° 147° (SSE) 3,512 7.2 -11.4°
